ECMWFFLT2_sfc_temp_135.txt.gz
Temp
66 67 67 67 68 68 67 68 68 68 68 68 69 69 69 69 68 67 68 68 68 68 67 66 67 67 66 67 67 67 67 68 65 65 66 65 65 64 64 63 62 63 63 63 63 62 61 61 61 60 59 55
65 64 66 66 66 66 66 67 67 67 67 68 68 67 67 66 65 66 68 68 68 68 67 66 67 67 67 67 66 66 66 67 65 64 65 65 64 63 63 62 62 62 63 63 62 62 61 60 60 59 58 53
63 63 64 65 65 65 65 66 66 66 66 66 66 65 64 64 63 65 66 66 67 67 67 65 66 67 68 67 67 67 66 66 65 64 63 64 63 62 61 60 61 61 62 62 62 62 60 59 58 58 55 52
62 62 63 63 63 64 64 65 65 65 65 64 63 62 62 61 61 62 63 64 64 65 64 63 63 66 68 68 67 67 66 65 64 64 63 62 61 60 59 59 59 60 61 61 61 60 59 57 57 53 51 51
62 62 61 62 63 63 63 63 63 63 63 61 61 60 60 60 59 57 58 60 60 62 60 61 62 65 66 68 67 66 65 64 63 63 62 60 59 58 58 57 58 59 60 60 60 59 57 56 51 51 51 52
61 61 61 62 61 62 62 62 62 62 60 58 60 60 60 58 56 55 55 56 57 54 56 59 60 62 64 66 66 65 65 63 63 62 60 59 58 58 57 56 47 49 56 58 58 56 56 50 48 50 50 51
60 60 60 61 61 60 61 59 59 59 59 60 60 59 57 56 55 55 54 55 56 55 57 58 59 60 63 64 64 64 63 62 62 61 59 58 58 57 56 49 46 46 44 46 54 53 49 47 48 50 50 49
60 60 60 60 59 58 57 58 58 58 59 59 59 58 56 54 54 54 54 55 54 54 56 57 58 60 60 60 61 61 60 61 60 59 58 58 57 52 49 47 47 46 45 46 46 47 45 46 47 49 49 47
59 59 59 59 58 57 57 56 56 57 57 57 57 56 56 54 53 53 52 53 53 50 52 53 55 55 54 53 52 53 50 51 53 51 48 50 49 45 47 47 47 48 48 47 48 47 46 47 47 47 47 48
58 59 58 57 57 56 56 55 55 54 55 56 55 54 54 55 54 53 53 52 51 50 50 50 49 50 51 50 50 50 48 48 47 47 47 47 47 46 46 46 46 45 45 46 46 46 46 47 47 46 46 48
58 59 58 58 57 56 55 55 54 53 53 53 53 53 54 53 52 52 53 52 51 50 50 50 49 49 50 49 48 49 48 47 47 46 47 46 45 45 46 46 45 45 45 45 46 46 46 46 46 46 47 47
56 57 58 57 55 55 55 54 54 53 53 53 53 53 52 52 52 52 52 52 51 50 50 50 51 50 50 49 48 49 49 47 46 47 47 45 45 47 46 46 46 45 46 45 45 45 45 44 46 46 45 47
57 56 56 56 56 55 55 54 54 53 53 53 52 52 52 52 50 52 53 52 52 50 50 50 50 50 50 49 48 48 48 48 46 46 46 45 45 45 45 45 45 45 45 44 45 45 44 44 44 44 46 46
55 56 56 56 56 55 54 54 54 54 53 53 52 52 52 52 51 50 52 52 52 50 50 50 50 50 50 50 49 49 47 47 47 46 45 45 45 45 45 45 45 44 44 44 44 43 43 44 44 43 43 44
56 56 55 55 55 55 54 54 53 53 53 53 52 52 52 52 51 50 51 53 52 52 51 50 50 50 49 49 48 49 48 48 47 46 46 46 45 44 44 44 43 43 43 43 43 42 43 44 43 43 43 44
56 56 56 55 55 54 54 54 53 53 53 52 52 52 52 52 51 51 51 52 52 52 51 50 49 48 48 48 48 48 47 46 47 47 46 45 45 45 44 43 43 43 43 43 43 41 42 42 43 43 42 43
55 56 56 55 54 54 54 53 53 52 52 52 52 52 52 52 52 51 52 52 53 52 52 50 49 48 48 48 47 47 46 45 44 45 45 44 44 44 43 43 42 42 42 42 42 43 42 41 42 41 41 42
56 56 56 55 54 53 53 52 52 52 51 52 51 52 52 52 52 52 52 52 52 53 52 50 49 48 48 47 46 47 47 45 45 44 44 43 44 43 43 43 41 41 41 40 40 42 40 40 41 41 41 41
56 56 55 54 55 54 53 53 52 52 52 51 51 50 51 52 52 52 52 53 53 52 51 50 49 48 48 47 47 47 47 47 46 46 45 43 43 42 42 42 41 41 40 40 41 41 40 42 41 40 41 41
56 56 55 53 53 54 54 52 52 51 52 51 51 50 50 51 51 52 52 53 53 52 51 50 50 49 48 47 47 47 46 45 44 45 44 45 44 41 40 41 40 39 39 40 40 39 40 40 39 39 39 41
52 54 54 53 53 53 52 52 51 50 50 50 50 49 49 50 49 50 51 51 50 48 49 50 51 50 48 47 47 46 45 45 44 44 43 42 44 44 40 41 39 38 39 39 40 39 38 39 41 40 40 40
48 50 53 51 51 50 51 52 51 50 49 49 49 48 49 49 49 48 49 50 48 47 47 47 48 48 48 48 47 45 44 44 44 44 43 41 40 42 41 40 40 38 38 39 38 39 39 39 39 39 40 41
46 47 48 50 51 49 50 50 50 50 49 50 49 48 49 49 48 47 48 48 48 47 46 45 45 47 48 48 46 45 43 42 42 42 42 42 39 40 42 42 41 40 39 38 38 38 39 39 41 39 39 41
44 44 44 45 47 48 48 48 48 48 49 49 48 48 48 48 48 47 47 47 47 46 45 45 44 44 44 47 46 44 42 41 41 41 40 40 41 39 39 41 41 40 39 38 38 38 38 39 40 37 38 39
43 42 42 43 44 44 47 47 46 46 46 47 48 49 48 48 48 47 47 46 46 45 44 44 44 43 42 43 45 44 44 44 43 43 43 41 41 40 37 37 39 39 40 37 34 36 36 37 37 38 37 39
42 43 42 42 42 43 44 46 46 46 46 45 45 46 47 47 46 46 46 45 45 45 44 43 43 42 41 40 43 45 45 44 43 43 41 40 37 40 39 37 38 37 39 35 35 34 33 35 35 33 35 37
39 42 44 44 43 42 42 44 44 46 46 45 45 45 46 46 46 45 44 44 44 44 43 43 42 42 41 40 39 39 42 43 42 42 41 40 40 37 36 36 37 38 42 34 34 33 33 30 32 34 35 34
39 40 42 44 44 44 43 41 43 43 44 44 45 44 44 44 44 44 44 45 44 43 43 43 42 42 40 40 39 38 39 41 42 42 40 40 41 39 36 35 36 39 39 36 37 30 30 29 30 27 30 33
38 38 38 39 41 42 41 41 39 39 39 41 42 43 43 43 44 44 45 45 44 43 43 43 42 41 40 39 38 38 36 35 36 41 42 42 40 39 39 36 37 37 39 38 43 37 31 25 24 28 29 33
37 36 35 35 34 34 35 34 35 35 35 37 39 40 43 45 44 44 43 43 43 43 42 43 42 42 40 38 37 37 36 36 36 37 40 41 42 41 41 41 38 37 39 39 41 39 38 36 31 31 30 32
36 35 35 34 33 33 33 32 35 38 38 38 39 40 40 42 43 44 43 43 43 43 43 42 42 40 39 38 37 37 36 35 36 36 36 38 41 41 41 39 38 38 38 37 37 37 36 32 29 36 33 29

ECMWFFLT2_sfc_temp_141.txt.gz
Temp
64 65 66 67 68 68 68 67 68 68 68 69 69 69 68 67 66 66 66 67 67 68 67 65 66 66 66 69 69 69 68 69 69 69 69 69 68 66 65 65 65 65 65 64 63 62 61 60 59 58 56 52
62 63 65 65 66 66 66 67 66 66 66 66 66 67 66 64 63 65 66 67 67 67 67 67 66 66 65 66 68 68 68 68 68 68 68 67 66 64 64 65 65 65 64 64 62 61 60 58 58 57 56 50
61 61 62 64 64 64 65 65 65 65 65 65 64 64 63 62 62 64 65 65 66 66 66 64 64 65 66 65 66 67 67 67 68 67 67 67 64 63 63 64 65 64 64 64 62 61 59 58 57 57 52 49
60 61 61 62 62 63 63 63 64 64 64 63 62 62 61 61 62 62 63 63 64 64 64 63 61 64 66 66 66 66 66 66 66 66 66 66 64 63 63 63 63 63 64 63 61 60 58 56 55 50 48 48
60 60 60 61 61 62 62 62 62 62 62 61 61 60 60 60 61 61 61 63 62 63 61 60 61 63 65 66 67 66 65 66 66 66 66 66 63 62 61 59 59 62 63 62 60 58 56 55 50 49 48 49
60 59 59 60 61 60 61 61 60 60 60 58 59 59 60 60 59 60 61 61 59 59 59 59 60 62 64 66 67 68 66 65 66 66 65 64 61 60 59 57 50 54 58 58 57 55 54 49 47 48 48 49
58 60 60 60 61 60 60 59 58 59 59 59 59 58 58 57 57 57 58 57 58 57 58 59 60 60 63 66 66 66 66 64 66 66 65 63 60 59 57 49 47 48 49 52 55 53 50 48 48 47 47 48
56 57 58 59 59 59 59 59 59 59 59 58 58 57 56 54 54 55 55 56 55 54 57 59 59 59 61 61 62 63 61 63 63 64 63 60 60 55 49 46 46 46 47 48 48 49 49 48 48 48 47 46
56 57 57 58 59 59 59 58 57 57 56 56 57 56 54 53 53 53 54 54 55 55 55 54 55 57 57 58 56 57 52 53 55 54 52 51 50 47 47 45 46 47 48 48 48 48 48 48 48 47 47 46
57 57 56 56 58 57 57 58 57 56 55 55 55 53 53 53 53 52 52 54 53 54 53 53 53 53 53 54 55 55 52 50 48 46 46 46 46 46 46 46 46 46 48 47 46 47 47 47 47 47 46 47
57 57 56 55 54 54 55 56 56 56 55 55 54 53 53 53 52 52 51 51 52 51 51 50 49 49 51 52 52 51 51 48 47 45 44 44 45 45 45 45 44 44 46 46 46 46 46 46 47 46 46 46
56 56 56 54 53 53 54 54 55 55 55 54 54 53 53 54 53 52 52 52 51 51 49 49 48 49 48 48 49 49 49 47 45 43 42 44 44 45 45 45 45 45 45 45 47 46 45 45 46 46 45 46
52 55 56 54 53 52 53 52 54 54 53 53 53 53 54 54 53 52 52 51 51 50 50 48 48 48 47 47 47 48 47 47 45 44 43 43 43 42 43 44 44 44 44 45 46 47 46 46 45 45 45 45
49 50 53 55 55 54 52 52 52 53 52 52 53 53 53 52 52 52 51 51 51 50 49 48 48 47 47 47 46 47 46 45 46 44 42 41 41 41 41 42 43 44 44 45 45 45 46 45 45 45 45 45
48 48 49 52 54 54 53 52 52 52 52 52 52 52 51 52 52 52 52 51 51 51 50 48 48 48 47 47 47 48 47 46 46 45 45 43 41 41 40 41 42 42 45 44 44 44 45 44 44 44 44 44
46 47 47 49 52 54 53 53 52 51 51 51 51 51 51 51 51 52 51 51 50 50 49 48 48 48 47 46 46 47 47 46 45 46 44 43 42 41 40 39 40 40 43 44 44 43 44 43 44 44 44 45
47 46 47 47 48 50 53 53 52 52 52 51 51 51 51 51 51 51 50 50 50 49 49 48 47 47 47 47 46 47 46 46 44 44 43 42 42 40 39 40 39 39 40 41 41 40 44 43 44 43 44 44
45 46 45 46 46 47 49 51 52 51 51 51 51 51 50 50 50 50 50 49 49 49 48 48 47 47 47 47 46 45 45 44 43 43 43 42 41 42 41 40 39 39 39 39 40 41 40 40 42 43 44 44
43 45 45 44 44 44 45 46 48 50 51 50 50 50 50 50 49 49 49 49 48 48 48 47 47 46 46 45 45 45 44 44 42 43 42 41 40 37 37 37 37 37 38 37 40 39 39 40 40 41 43 43
42 44 45 44 44 43 44 43 43 44 46 47 48 49 49 49 49 49 49 49 48 47 47 47 47 46 46 45 44 42 42 44 43 42 41 41 41 39 36 37 37 37 37 38 39 40 39 39 39 39 40 41
40 42 43 43 43 42 42 41 41 42 43 44 44 45 46 48 48 48 49 48 48 47 47 47 47 46 45 44 43 42 41 43 43 42 41 40 40 42 38 38 37 36 36 36 38 39 38 38 38 38 39 40
39 39 41 42 41 42 40 41 40 40 41 41 41 42 42 44 46 47 48 48 48 47 47 46 46 45 45 44 43 42 40 41 42 42 41 40 39 40 39 38 37 37 36 37 37 37 37 37 37 38 39 39
38 38 38 40 40 39 39 39 39 39 38 39 40 40 41 41 42 44 46 47 47 46 46 46 46 45 44 43 42 41 40 39 39 40 41 40 39 38 39 39 38 38 37 36 36 36 36 35 36 36 36 37
35 36 35 35 37 36 36 36 37 37 37 37 37 38 39 39 40 41 42 44 46 46 45 45 45 44 44 43 42 40 39 38 37 37 38 38 38 37 38 38 38 37 37 34 34 34 33 32 32 34 35 35
32 32 32 34 34 34 35 35 35 35 35 35 35 36 37 37 38 39 40 41 42 44 45 45 44 44 43 43 42 41 41 40 39 38 37 37 37 36 35 35 36 37 37 35 34 31 30 31 30 32 35 34
31 32 32 32 33 34 34 34 33 33 34 34 35 35 35 35 36 37 38 38 40 41 42 43 43 43 42 42 42 41 42 40 39 38 37 36 34 36 35 34 34 34 39 34 33 34 34 34 33 32 32 33
30 31 32 32 33 34 34 36 36 34 35 35 35 35 35 35 34 35 35 36 36 37 38 40 41 42 41 42 41 40 39 39 38 37 37 36 35 33 35 34 35 34 36 34 34 34 34 33 32 35 34 32
31 31 31 32 32 33 34 32 34 34 35 34 34 34 35 35 34 34 34 35 34 34 35 36 37 39 40 40 40 39 38 37 37 37 36 36 36 35 32 33 32 35 36 35 36 32 33 31 30 29 33 35
30 30 29 29 28 29 30 32 31 31 30 31 32 32 33 33 34 34 34 34 34 34 33 34 35 35 37 39 39 39 38 37 37 37 37 37 35 35 35 32 32 33 34 36 41 37 31 28 29 30 31 33
30 29 28 27 26 25 25 24 25 25 26 28 29 29 32 33 34 33 33 33 33 33 33 33 34 34 34 35 36 38 37 37 36 37 36 36 36 35 36 35 32 31 33 35 37 37 38 36 32 31 32 34
29 28 27 26 25 25 24 23 24 27 28 28 29 30 30 31 32 32 32 32 33 32 32 32 33 33 33 34 34 35 36 35 35 36 36 36 35 35 35 35 33 32 31 33 35 36 37 34 33 32 34 33

ECMWFFLT2_sfc_temp_144.txt.gz
Temp
63 64 65 66 66 66 66 67 68 69 68 67 68 68 68 68 67 67 66 68 68 68 68 67 67 68 68 68 68 68 69 69 69 70 70 69 68 68 67 66 66 66 66 64 63 62 61 60 59 58 57 52
61 62 63 64 64 65 65 66 67 68 67 67 66 66 66 65 64 66 67 67 67 67 66 65 66 66 68 68 69 68 68 68 68 69 70 67 67 66 66 66 66 65 64 64 63 61 60 59 58 57 57 51
60 61 61 62 63 64 64 65 65 65 65 65 64 64 63 63 62 64 64 65 66 66 65 64 64 66 68 68 69 69 68 68 66 68 67 65 65 66 65 66 66 65 64 63 62 61 60 58 57 57 54 51
59 60 60 60 61 62 63 63 64 63 63 63 62 61 61 60 60 61 61 63 63 64 64 62 62 65 67 68 67 67 67 67 67 67 66 65 64 64 65 65 65 64 64 63 62 60 59 57 56 53 50 50
57 59 59 60 60 61 61 62 62 62 62 61 60 60 59 59 59 59 60 61 61 62 60 60 61 64 66 67 66 66 66 65 66 66 65 64 63 63 60 59 60 62 63 62 60 59 57 56 54 51 51 51
54 58 59 60 60 59 60 61 60 61 60 58 59 58 58 57 57 59 59 59 57 58 58 58 59 60 63 66 66 66 66 65 66 67 65 63 63 61 60 58 50 53 58 59 58 56 55 53 50 51 51 51
52 56 58 59 59 60 59 58 57 58 57 58 58 58 58 57 57 58 57 57 57 56 58 57 58 58 62 65 65 66 65 64 65 66 65 64 62 60 58 48 45 48 49 52 56 55 52 50 50 49 51 51
51 54 57 58 58 58 59 59 57 57 57 58 58 57 57 56 55 55 56 55 54 54 56 56 57 58 59 59 61 62 61 63 63 64 65 62 59 54 48 46 45 45 47 47 48 49 50 49 50 51 51 50
49 52 55 56 57 58 58 58 58 57 56 56 56 56 55 54 55 55 55 55 55 54 55 55 55 55 56 56 58 57 53 52 53 53 51 50 48 45 46 46 45 45 46 46 47 48 48 48 48 49 49 48
48 50 50 53 55 56 56 57 56 57 56 56 56 55 55 54 54 54 53 53 54 54 55 54 54 54 53 53 54 55 51 49 49 47 46 47 46 44 44 43 43 43 45 46 45 46 46 47 47 48 48 48
48 48 49 50 52 54 55 55 55 55 55 55 56 55 54 54 54 53 52 53 53 53 54 53 52 52 51 52 51 52 50 47 47 46 46 44 44 43 43 42 41 42 42 44 45 45 46 46 47 47 47 48
47 47 48 48 49 52 53 54 54 54 55 55 55 54 54 54 53 53 52 53 52 53 52 53 52 50 50 50 50 49 50 47 46 46 45 45 44 45 43 43 42 41 42 41 43 43 43 44 47 47 46 46
47 47 46 47 47 48 51 53 54 53 53 53 53 53 53 53 53 53 52 52 52 52 51 50 50 49 49 49 48 49 47 47 45 45 45 45 45 44 44 42 42 42 43 42 42 43 43 43 44 44 44 44
45 46 45 45 45 46 48 49 52 53 53 52 52 52 52 52 53 53 52 52 51 51 50 49 49 49 48 48 48 48 46 45 45 43 44 44 45 44 43 43 43 42 42 43 42 43 44 43 43 43 43 44
44 45 44 44 44 44 45 46 48 50 51 52 51 51 52 51 51 51 52 51 51 51 50 49 48 48 47 47 47 47 46 45 46 45 45 45 44 44 43 42 42 42 43 42 42 42 43 42 43 43 43 43
42 43 44 44 43 43 43 44 44 44 45 47 49 51 51 51 51 50 50 51 50 51 49 49 48 47 47 47 46 46 44 44 44 44 43 43 43 42 42 41 40 40 43 42 42 41 42 42 43 43 43 44
41 42 43 43 42 41 42 42 42 42 42 43 44 46 47 49 50 50 50 50 50 50 49 48 48 47 47 46 46 45 44 43 43 43 42 41 41 41 41 41 39 38 39 40 40 41 42 41 43 43 43 44
40 41 42 42 42 41 40 40 40 40 41 41 41 43 44 44 47 49 50 49 49 48 48 48 48 47 46 46 46 45 43 41 40 41 42 41 41 42 42 41 37 38 40 38 37 38 37 40 40 41 43 43
39 40 41 41 41 40 39 38 38 38 39 39 39 40 41 42 43 44 46 48 48 48 47 47 47 46 46 45 45 43 42 41 40 40 42 41 41 40 38 38 37 37 36 37 39 37 35 38 38 37 38 39
39 39 40 40 41 39 39 38 37 36 37 37 38 38 38 40 41 42 42 44 46 47 47 47 47 46 45 45 44 42 41 41 39 40 39 41 42 41 38 39 38 37 37 36 37 35 35 34 35 36 36 38
37 38 39 39 39 39 38 37 36 35 36 36 35 36 36 37 38 39 40 41 43 45 46 46 46 46 45 44 44 42 40 40 40 39 39 38 41 42 39 40 39 37 36 36 36 36 36 34 35 36 35 35
34 36 38 38 39 39 38 37 37 36 35 34 34 34 34 35 36 37 37 38 39 41 43 45 46 45 45 44 43 41 40 40 39 39 38 37 38 39 40 39 39 38 34 34 34 34 33 33 33 33 35 36
33 34 36 38 37 37 37 37 37 36 35 34 34 33 34 34 34 35 35 36 37 37 39 41 43 45 44 44 42 41 40 39 38 38 38 38 37 38 39 40 39 37 34 33 32 32 31 31 32 33 34 36
31 31 31 32 34 34 35 35 35 36 35 34 33 34 33 33 33 34 34 35 35 35 36 37 38 40 43 43 42 41 39 39 38 37 37 37 37 36 36 37 38 37 36 31 29 33 31 31 30 34 36 35
29 28 28 30 31 31 33 33 34 33 34 34 34 34 34 33 32 33 33 33 33 33 34 35 36 37 38 41 42 41 41 41 39 39 38 37 37 36 35 34 36 37 38 37 36 34 35 34 33 34 37 36
28 28 27 26 28 30 32 32 31 31 32 33 34 34 34 33 33 32 32 32 32 32 33 33 33 34 35 37 38 40 41 41 39 39 38 37 35 37 35 34 34 34 38 34 35 35 33 34 36 37 37 35
27 28 28 27 28 28 28 32 32 32 33 33 32 33 33 33 32 32 31 31 31 30 31 32 32 33 34 34 35 37 39 39 38 38 37 37 35 34 36 34 35 35 37 33 32 33 33 32 34 36 36 36
27 28 28 27 27 28 28 28 30 31 32 31 31 30 32 32 32 32 31 31 30 30 30 30 30 32 32 33 34 34 35 37 37 37 37 37 37 35 33 33 32 35 36 34 33 30 30 30 29 30 34 35
27 28 26 26 26 27 26 27 26 26 26 28 29 29 30 30 31 31 30 31 30 30 29 29 29 30 31 32 32 33 33 34 35 37 37 37 36 35 35 32 33 33 35 35 38 35 29 27 27 28 32 33
27 26 25 25 25 23 24 23 23 22 23 24 25 26 29 29 30 30 30 30 29 29 29 29 29 29 29 30 31 31 32 32 33 33 35 37 36 35 36 34 33 31 34 35 36 37 36 35 33 31 31 33
26 25 25 24 24 24 23 22 23 24 25 24 25 26 26 28 29 29 29 29 29 28 28 29 28 28 29 29 30 31 30 30 31 32 33 35 35 35 36 35 33 32 31 33 33 34 33 32 30 32 32 29

ECMWFFLT2_sfc_temp_150.txt.gz
Temp
56 56 57 57 58 59 60 62 63 64 65 65 67 67 68 67 67 68 68 68 67 67 66 66 66 66 65 66 67 66 67 67 68 68 67 67 68 68 69 68 67 66 65 64 63 62 61 60 60 61 64 69
56 55 56 56 56 57 58 59 61 62 63 64 64 65 64 64 64 65 66 66 66 65 66 66 65 65 66 66 66 66 66 67 68 68 67 67 68 68 68 67 67 65 65 63 62 61 60 60 60 61 64 70
58 55 55 55 55 56 56 57 58 60 61 62 62 62 63 63 62 63 64 64 65 66 65 64 64 66 66 67 67 67 67 67 67 67 66 66 66 66 67 67 66 65 64 64 63 61 60 59 59 60 66 70
58 55 54 54 54 55 55 55 56 58 59 59 60 60 60 60 62 63 64 63 65 64 63 62 63 65 66 66 67 66 66 66 66 67 65 65 66 66 66 66 65 64 64 63 62 62 60 59 59 63 64 66
57 56 54 56 54 54 54 54 54 55 57 57 58 58 60 60 62 63 64 64 64 63 64 61 61 62 63 65 66 65 65 66 67 65 65 64 64 63 62 62 62 62 64 63 62 61 60 59 65 65 66 66
56 56 55 56 56 55 54 53 52 53 53 54 55 56 58 61 62 61 61 61 58 62 62 62 59 60 61 64 65 65 64 64 66 65 64 63 63 62 60 60 60 59 61 60 61 60 58 63 64 65 66 65
56 56 56 56 55 55 53 53 52 52 52 52 52 52 54 55 61 63 61 60 58 58 58 61 59 58 60 63 64 64 63 62 64 64 63 62 61 60 59 61 60 59 58 58 58 58 62 68 68 66 66 66
55 55 56 55 54 54 53 52 51 50 50 50 49 50 52 53 56 59 62 57 56 56 61 61 58 58 58 59 60 60 61 61 61 62 62 60 59 59 61 63 61 60 60 60 58 56 58 62 65 67 68 69
53 54 54 53 53 52 52 51 50 49 49 49 49 49 51 52 54 56 59 60 61 62 63 62 63 62 62 61 62 59 60 58 60 59 56 55 54 54 57 61 62 61 61 61 60 60 61 60 60 64 68 70
53 52 52 51 51 51 51 50 49 49 48 48 48 48 49 50 51 52 54 57 58 59 61 60 60 61 62 62 61 60 58 57 57 55 55 54 54 53 53 57 59 60 59 58 60 63 63 63 63 63 65 66
52 52 51 51 50 49 48 49 48 47 47 46 46 46 47 47 48 49 49 50 53 56 58 58 60 60 60 60 59 60 59 57 56 56 57 59 60 58 57 56 58 57 57 58 58 58 59 61 64 64 64 64
51 51 50 50 50 49 47 47 46 46 46 46 45 45 45 46 46 46 46 47 48 51 55 56 57 58 58 58 58 57 57 56 56 58 60 60 60 60 60 60 60 60 59 58 59 58 57 58 60 63 65 65
51 51 50 49 49 48 47 47 45 44 44 44 44 44 44 44 44 45 44 45 47 49 50 53 55 57 58 58 57 56 55 56 57 58 60 60 61 62 62 62 62 61 60 59 59 60 59 58 59 60 62 63
49 49 49 48 48 48 48 47 46 44 42 42 43 43 43 44 43 42 42 43 45 46 47 49 53 54 56 56 55 55 56 57 58 59 59 60 61 63 63 63 62 62 61 59 58 59 59 57 59 59 59 61
48 49 48 48 48 48 47 47 47 46 44 42 41 41 41 42 42 41 41 41 42 43 45 46 48 51 53 54 55 55 54 54 56 57 59 59 59 61 61 62 62 63 62 61 59 58 57 58 58 59 61 61
47 47 48 48 48 47 47 47 47 46 46 43 42 41 40 40 40 40 39 40 41 42 42 43 44 46 48 50 51 52 51 50 50 52 53 52 55 59 61 60 60 61 62 61 61 59 57 57 57 58 61 62
47 47 47 47 47 47 46 47 46 45 45 45 44 42 41 39 39 38 38 39 40 41 41 41 42 42 43 46 49 49 49 49 47 48 49 49 51 52 57 57 57 57 60 59 59 60 59 59 57 58 60 61
46 46 46 47 47 46 45 46 45 45 45 44 44 44 42 41 39 37 37 38 39 39 40 40 40 40 41 42 46 47 47 47 46 46 46 45 45 48 51 53 54 56 56 56 56 58 58 59 59 58 58 59
46 47 46 46 45 45 44 44 44 44 45 44 44 44 43 42 41 39 36 36 37 38 38 38 39 39 39 41 44 46 46 45 45 45 45 44 44 45 46 50 51 52 54 53 54 55 57 58 59 58 58 57
46 46 46 46 44 45 44 44 43 43 43 44 44 44 43 42 42 40 37 36 35 35 37 37 37 38 39 40 42 45 45 45 44 44 43 43 45 44 45 49 49 52 51 50 51 52 54 55 56 57 58 57
45 45 46 46 45 45 44 43 43 43 42 42 42 42 42 41 41 41 39 37 35 34 35 35 36 37 38 39 40 41 42 43 43 42 42 42 41 41 43 43 47 50 50 49 50 50 50 52 54 56 57 57
44 45 45 45 45 44 44 44 43 43 43 42 41 40 39 39 40 40 40 38 36 35 34 34 35 36 36 37 39 39 39 40 41 42 41 40 41 40 40 40 41 43 47 48 48 49 50 50 51 54 54 54
46 46 46 46 44 43 43 44 43 43 42 41 41 39 38 38 39 39 39 38 37 35 34 33 33 34 35 36 37 37 37 37 38 39 40 40 39 40 40 39 39 39 40 42 45 46 49 51 51 51 52 52
44 45 44 42 44 43 42 42 42 42 41 41 40 39 38 38 38 38 38 38 38 38 35 33 33 33 34 34 35 35 35 34 35 36 37 38 39 39 39 40 39 38 38 38 39 42 46 48 50 51 52 52
42 41 41 42 42 40 42 41 41 42 41 40 40 39 38 37 37 36 36 37 37 37 37 36 34 33 32 33 33 34 34 34 35 35 36 36 38 38 38 38 38 38 39 37 36 37 42 45 49 49 50 53
42 42 41 41 41 41 41 41 40 39 41 40 39 40 39 38 37 36 35 35 36 36 36 35 33 32 32 32 32 33 34 34 34 35 35 35 35 37 35 35 38 37 38 35 35 36 37 40 46 48 49 50
41 42 42 42 42 41 41 43 42 40 40 40 40 40 39 38 37 37 36 35 34 33 34 34 35 33 33 33 32 31 31 32 32 33 33 33 33 34 35 34 35 35 36 34 34 35 35 36 36 42 45 48
41 41 41 41 42 42 42 40 41 42 42 41 40 38 39 39 38 37 36 36 34 32 32 31 32 34 33 33 32 30 30 30 30 31 32 32 33 33 33 34 34 35 35 34 34 34 34 35 36 38 40 43
40 41 41 42 42 42 42 43 42 41 40 40 39 39 39 37 38 37 37 37 35 35 33 31 30 31 32 32 32 30 29 30 30 29 31 31 31 32 32 32 34 34 34 33 35 33 33 33 33 35 38 38
40 39 39 38 37 36 37 37 38 36 36 37 37 37 39 38 38 37 37 36 35 35 34 33 31 30 30 32 31 30 28 29 30 29 28 30 31 30 32 32 33 33 34 33 34 33 35 33 31 31 33 36
39 39 39 38 37 37 36 36 37 39 39 38 39 38 37 38 38 37 36 37 36 35 35 34 33 32 31 31 32 31 29 28 27 27 28 29 30 30 31 31 30 31 32 34 33 33 33 33 33 33 32 32

ECMWFFLT2_sfc_temp_156.txt.gz
Temp
59 59 59 59 59 59 59 59 59 58 58 58 57 57 57 58 58 60 61 61 62 62 63 63 64 65 66 66 67 68 68 68 68 68 68 68 69 68 69 68 68 67 66 66 65 64 62 62 63 62 61 63
58 58 58 58 58 58 58 58 58 57 57 56 56 55 55 56 56 57 59 58 58 60 60 61 61 63 64 66 66 67 68 67 68 67 67 67 68 67 67 67 67 66 65 64 63 62 61 62 62 61 60 63
55 57 57 57 57 57 57 57 57 56 56 55 54 54 53 54 54 55 56 56 56 57 58 58 59 61 63 65 66 66 66 67 67 67 66 66 67 67 66 66 66 65 65 64 63 62 61 59 59 60 61 63
53 55 57 56 56 56 56 55 55 55 54 53 53 52 52 52 52 52 54 55 53 55 56 56 57 58 61 63 64 65 65 65 66 66 66 66 66 66 65 65 64 64 64 63 62 61 60 58 59 60 59 61
52 54 55 54 55 55 55 54 54 53 52 52 51 51 51 51 50 50 52 52 51 53 53 55 56 56 58 61 62 62 63 64 65 66 65 65 64 63 62 62 61 62 62 62 61 59 58 59 59 59 59 60
52 51 54 52 51 51 52 52 52 50 49 49 47 49 48 48 49 50 50 51 50 50 52 53 54 54 56 58 59 60 61 62 64 64 64 64 63 62 61 60 57 57 59 59 59 58 57 58 57 58 59 59
51 52 51 51 51 50 52 51 50 49 48 47 46 46 46 47 48 49 50 50 49 49 52 52 52 53 54 55 57 57 57 61 61 62 62 62 62 61 60 56 55 56 56 55 58 57 56 56 57 58 58 58
51 50 50 50 50 50 49 49 49 48 48 47 46 45 45 46 47 47 48 49 49 49 49 50 51 51 51 52 54 54 53 57 59 59 59 59 59 56 55 55 54 55 55 55 55 55 55 55 55 57 57 57
49 50 49 49 49 49 48 48 48 48 47 47 46 45 45 44 45 45 46 46 47 47 48 49 49 49 48 49 50 51 51 52 55 56 54 54 54 53 53 53 53 54 55 54 54 54 55 55 55 55 56 57
49 49 48 47 48 47 47 47 47 47 47 47 46 45 44 45 44 44 44 44 44 45 47 47 47 48 47 46 47 49 49 50 50 53 54 54 53 52 53 52 52 52 52 53 54 54 55 56 56 55 55 55
48 47 47 47 47 46 46 46 46 46 46 46 46 45 44 43 43 42 42 42 42 42 45 45 45 46 46 45 45 47 47 48 49 49 51 54 54 53 52 52 52 52 52 52 53 53 53 54 54 55 55 55
46 46 47 47 47 46 47 46 45 45 45 45 45 44 44 44 43 42 41 40 40 40 42 43 44 45 45 44 44 45 47 46 46 48 49 50 53 54 53 54 54 53 53 52 52 52 52 53 53 54 54 55
45 45 45 45 45 44 47 44 44 45 45 44 45 44 43 43 41 42 41 40 39 40 40 41 42 43 43 43 43 44 44 45 45 46 47 48 48 50 52 53 53 53 54 53 53 53 53 52 52 53 54 54
43 44 43 44 44 44 45 43 44 44 43 44 43 43 42 42 42 41 40 40 39 38 39 40 41 41 42 41 41 42 42 43 44 45 46 46 47 48 47 50 53 53 53 53 53 53 53 53 53 52 52 53
45 45 44 43 43 43 43 43 43 42 42 42 42 42 41 41 41 41 40 39 39 38 38 39 39 39 40 40 40 41 42 43 43 44 44 45 45 46 47 48 50 52 53 52 53 52 53 53 53 53 52 52
44 43 43 43 43 42 43 43 41 40 41 41 40 41 40 40 40 41 39 39 38 38 38 37 37 38 39 38 39 40 41 41 42 43 44 45 45 45 46 46 48 49 51 53 53 53 53 53 53 51 52 52
43 42 43 42 42 42 43 42 41 40 40 40 40 40 39 39 39 40 38 38 38 39 37 37 37 37 37 37 38 39 40 41 41 41 42 43 44 43 44 45 45 47 48 48 49 52 54 53 52 52 52 51
41 42 41 41 40 40 41 40 39 40 40 40 39 39 38 38 38 39 38 37 37 37 37 37 36 36 36 36 37 38 39 39 39 39 40 41 41 41 42 42 43 43 44 45 46 46 49 53 53 53 52 51
43 43 43 40 40 40 39 39 39 38 39 37 38 38 36 37 37 38 37 37 36 36 37 36 36 36 36 36 37 37 38 38 38 38 38 39 39 40 40 41 41 41 42 43 42 44 46 48 51 53 52 51
43 43 42 42 43 40 39 39 38 38 38 38 37 37 36 36 36 37 36 36 36 35 36 36 35 36 36 35 35 36 37 37 36 36 36 38 38 37 38 40 39 40 40 40 41 43 44 46 47 49 51 51
40 42 41 42 42 42 39 39 38 38 38 37 36 35 34 35 36 34 35 35 35 34 35 35 35 36 36 36 34 34 34 34 35 35 35 36 37 38 37 38 38 38 39 39 40 41 41 43 44 47 49 50
41 41 42 39 40 41 40 40 39 39 38 37 37 35 34 34 34 34 33 33 34 33 34 34 34 35 35 35 34 33 33 32 33 34 34 33 36 37 37 37 36 36 37 38 38 39 40 41 42 44 46 48
40 40 40 40 39 39 39 38 38 39 37 37 36 36 35 35 34 34 32 32 32 32 32 32 33 33 34 34 33 32 32 31 31 32 32 31 32 36 37 37 36 36 36 36 37 38 39 40 41 42 44 45
37 37 36 35 36 36 37 38 37 39 37 37 36 36 36 35 34 34 33 32 32 30 32 30 31 31 32 32 32 31 30 30 30 30 30 30 31 33 35 37 36 36 35 35 36 37 39 40 40 41 42 44
36 34 34 35 35 34 35 36 37 38 37 36 36 36 35 35 34 34 33 33 32 30 31 30 30 30 30 31 31 30 29 30 29 31 30 30 32 32 32 34 36 35 35 34 34 36 37 38 41 41 42 42
37 36 35 33 34 34 34 35 35 34 37 37 38 36 35 35 35 34 33 33 32 32 30 29 28 28 29 29 29 30 30 29 31 29 28 30 29 31 31 31 35 34 33 32 31 31 32 35 39 41 41 41
35 37 36 36 35 35 34 37 38 37 38 39 37 36 36 35 35 34 32 32 32 30 30 28 28 28 27 28 29 27 27 27 27 26 26 27 28 28 30 30 34 33 33 29 31 32 32 32 32 36 36 39
37 37 37 37 38 37 37 36 38 38 39 38 38 36 36 36 34 34 33 32 32 31 30 29 27 27 26 28 27 27 27 26 26 26 25 25 27 28 25 28 30 34 32 31 30 27 30 31 31 32 32 32
37 36 35 36 35 35 35 34 34 34 34 36 36 37 35 34 35 35 33 33 32 31 29 28 26 26 24 25 26 27 27 25 25 25 25 25 24 23 25 25 28 31 32 31 32 29 28 28 30 30 30 32
36 35 33 33 31 29 30 28 28 29 31 32 33 35 37 36 35 34 33 32 32 32 32 29 28 25 24 22 23 23 23 23 25 24 25 25 23 23 26 25 26 27 31 32 32 31 31 30 26 27 29 30
35 33 33 33 31 30 30 29 30 32 34 34 35 35 36 36 36 36 35 34 32 32 31 30 29 28 25 24 23 25 24 22 22 22 23 26 25 23 26 24 24 25 25 29 30 31 30 31 31 31 29 26

ECMWFFLT2_sfc_temp_162.txt.gz
Temp
55 55 55 55 55 55 55 55 55 54 54 54 54 53 53 53 52 53 53 54 55 56 56 56 56 58 59 60 61 61 61 62 63 63 64 64 65 65 65 65 65 65 65 65 64 62 62 61 61 60 60 60
53 53 53 54 54 54 54 54 53 53 53 52 52 52 51 50 50 50 51 51 52 53 54 54 54 56 57 59 59 59 59 60 61 62 62 62 63 63 63 63 64 63 63 63 63 62 61 61 59 59 60 59
47 52 52 52 52 52 52 52 52 51 51 50 50 50 49 49 48 48 48 49 49 51 51 51 52 53 55 57 57 58 57 58 59 60 60 61 61 61 61 61 61 61 62 62 62 61 61 60 59 59 59 58
43 49 50 50 51 51 51 50 50 49 48 47 47 47 48 47 44 44 43 47 45 48 48 49 49 51 52 54 55 56 55 56 57 58 58 59 59 59 58 59 58 58 59 60 61 60 59 58 58 57 57 57
43 46 48 45 48 49 49 49 48 48 46 45 44 45 45 44 41 39 40 41 42 45 43 47 48 48 50 51 53 54 52 53 55 56 56 57 57 56 55 55 55 56 57 58 58 58 58 57 56 56 56 57
42 41 45 40 40 41 44 46 45 42 41 42 38 42 40 39 40 39 39 39 42 40 42 43 46 46 47 49 50 51 50 51 52 54 54 54 55 54 54 53 50 51 53 55 56 56 56 54 54 55 55 56
41 40 39 38 40 40 43 42 42 39 40 37 37 37 37 39 38 38 38 40 41 41 43 42 44 45 45 46 47 48 47 48 49 50 51 52 52 52 51 48 48 49 50 50 54 54 53 52 53 54 55 55
40 38 38 38 39 39 38 38 39 38 38 37 37 36 37 37 37 37 36 40 41 40 38 39 42 43 42 42 43 45 43 45 45 47 47 48 50 48 46 46 47 48 48 49 50 51 51 51 52 52 53 53
39 39 38 38 38 38 37 37 37 37 37 36 36 36 36 36 36 35 35 35 36 36 37 36 36 37 37 37 36 42 39 40 41 42 40 41 44 44 44 45 46 46 47 48 49 50 50 50 51 51 52 52
40 38 37 37 38 37 37 36 35 36 36 36 36 35 36 36 34 34 34 34 34 35 35 35 35 35 35 35 35 38 37 39 39 39 40 40 41 42 44 44 44 45 45 46 47 48 49 49 49 50 50 51
36 36 36 37 37 37 35 35 35 34 34 35 34 34 35 35 33 33 33 33 33 33 34 34 34 34 34 34 34 36 36 36 38 38 39 39 39 41 42 43 43 44 45 45 46 47 48 48 48 48 49 50
36 34 35 37 37 36 39 35 34 33 33 35 34 34 34 36 32 32 31 32 32 32 33 33 34 34 34 33 33 35 36 35 35 37 38 38 38 40 40 40 42 43 44 44 45 46 46 47 47 47 47 48
34 34 34 34 34 34 40 33 33 33 33 33 33 33 33 33 32 32 31 31 31 31 31 32 32 33 32 32 33 34 33 34 34 35 36 36 37 38 39 39 39 41 42 43 44 45 45 45 46 46 47 48
34 34 33 33 34 35 36 33 34 34 32 32 31 31 32 33 32 30 30 30 30 30 30 31 31 31 31 31 32 32 32 33 32 33 34 35 36 37 38 38 39 40 40 40 41 43 43 44 44 44 45 46
34 35 33 34 33 32 33 34 34 32 32 31 31 32 31 31 32 32 30 29 29 29 29 30 30 30 31 31 31 32 31 32 32 32 32 32 33 35 37 37 39 40 39 38 39 40 41 43 44 44 44 45
34 35 34 35 32 33 32 35 32 32 31 33 31 32 30 31 30 32 29 29 29 29 28 29 29 29 30 30 30 31 30 30 31 30 30 31 33 34 35 37 38 39 38 37 37 38 38 41 42 43 43 43
36 34 33 33 33 34 36 32 32 32 33 31 32 32 31 30 32 31 29 28 28 30 26 27 27 28 29 29 29 30 30 29 29 29 29 29 32 32 34 35 35 38 38 37 36 36 37 38 39 41 42 43
34 34 33 35 31 35 32 32 31 33 30 32 31 31 30 31 33 30 29 28 27 27 27 27 27 27 28 28 29 29 29 28 28 28 28 28 29 32 32 33 33 35 35 35 35 34 35 36 37 39 40 42
36 36 33 31 31 33 32 33 31 29 29 29 29 29 29 30 32 30 30 29 28 27 26 26 26 27 26 28 28 27 28 27 27 27 26 27 26 28 30 32 32 34 34 34 33 33 34 34 36 38 38 41
34 34 33 31 36 33 32 32 30 29 29 29 28 28 28 28 31 29 28 28 28 28 26 26 26 26 27 26 27 27 27 27 26 26 26 26 26 25 27 29 29 33 33 33 32 33 33 34 35 36 37 39
32 32 32 32 31 31 32 31 30 30 29 28 30 28 28 28 30 28 28 28 27 28 27 27 26 26 25 26 25 25 25 25 26 25 26 25 26 25 25 26 27 30 32 32 32 32 32 33 34 35 36 38
33 33 32 31 29 34 33 31 30 30 30 31 29 28 29 28 29 30 26 26 27 26 27 27 26 25 25 25 24 25 24 24 25 25 24 24 25 25 25 25 25 27 30 31 30 30 31 32 33 34 35 37
33 32 31 29 29 30 29 30 30 30 29 30 29 28 29 28 30 31 27 27 27 26 26 25 24 25 25 25 24 24 25 25 25 25 24 24 24 25 25 25 25 26 29 29 29 30 31 32 32 33 35 37
31 31 32 32 31 30 30 30 30 32 29 30 28 30 29 28 28 29 30 27 26 26 28 25 25 24 24 25 25 24 24 24 23 23 23 24 24 24 25 26 24 26 27 28 28 30 31 31 31 33 36 35
30 31 29 28 27 29 30 31 30 31 31 30 30 29 28 28 29 28 28 29 27 27 30 29 25 24 24 24 25 24 24 23 23 24 23 23 24 24 23 24 25 25 26 26 26 28 28 28 32 34 34 33
32 32 31 31 31 30 28 29 29 29 31 31 31 29 28 29 28 27 26 28 27 28 26 27 26 26 25 24 23 25 24 24 26 23 22 22 22 23 22 22 24 24 25 23 23 23 24 27 29 32 33 31
34 32 33 32 31 29 28 29 31 31 31 30 30 29 28 28 27 27 26 26 27 27 27 27 26 27 25 25 25 25 23 23 22 22 20 19 19 20 22 23 24 23 24 18 24 25 22 22 24 30 29 30
35 35 34 32 33 31 32 32 31 29 28 28 28 29 28 27 27 28 27 27 26 26 27 27 26 27 25 26 25 25 24 23 23 23 23 19 20 19 18 17 19 25 19 18 23 19 20 22 24 22 26 26
34 32 30 29 29 29 28 29 28 28 29 29 29 29 28 30 28 28 28 27 27 27 27 24 23 24 25 25 24 25 25 24 24 24 22 22 21 19 17 17 16 19 19 18 24 22 20 19 21 22 25 25
33 33 32 31 30 30 30 28 27 29 30 30 29 29 28 27 27 27 28 27 27 26 27 26 24 22 22 23 24 24 23 24 24 23 23 23 23 19 20 16 16 15 19 19 21 21 21 21 19 20 22 23
34 32 32 32 32 31 30 30 30 29 29 29 29 29 28 28 27 27 27 27 26 27 26 26 25 25 23 23 23 25 22 22 22 23 23 25 23 22 23 19 15 16 16 18 14 17 16 17 20 20 20 18

ECMWFFLT2_sfc_temp_168.txt.gz
Temp
52 53 53 53 53 53 53 53 53 52 52 52 52 51 51 50 50 51 51 53 53 53 53 53 54 56 56 57 56 56 57 57 58 58 58 58 58 58 57 57 57 57 58 57 57 56 56 55 55 55 55 51
51 51 51 51 51 51 51 51 51 50 51 50 50 49 48 47 47 49 50 50 51 51 52 51 52 54 55 55 55 55 55 56 56 56 56 56 56 56 55 55 54 55 55 55 55 55 54 54 53 53 53 50
45 49 49 50 50 50 49 49 49 49 48 48 47 47 46 45 44 45 47 47 48 49 49 49 49 51 53 54 54 54 54 54 55 55 55 55 54 54 53 52 51 52 53 53 53 53 53 52 51 51 50 48
38 46 48 48 48 48 48 47 47 46 46 45 45 45 44 43 39 39 40 45 42 46 46 47 46 48 51 52 52 52 52 52 53 53 53 53 53 52 51 49 48 49 50 51 51 51 50 50 49 46 46 47
37 42 42 42 46 46 46 45 45 44 42 41 41 41 41 38 35 33 34 36 37 42 40 45 45 46 47 50 50 49 49 50 51 51 51 51 50 49 48 47 45 46 47 48 49 48 48 47 43 44 44 45
36 37 40 34 35 36 39 41 40 37 35 37 32 38 35 33 35 32 33 35 38 36 39 39 44 44 45 47 47 47 46 47 48 49 49 49 48 47 46 45 38 39 42 45 46 45 46 41 41 42 43 43
37 34 33 33 34 36 39 38 36 32 34 30 31 31 31 33 32 32 32 36 38 37 40 39 41 42 42 43 44 44 43 43 44 45 46 46 45 44 43 37 36 37 37 37 43 42 39 38 39 40 41 41
35 33 33 34 33 33 33 32 33 31 30 30 30 31 32 31 32 31 31 36 37 36 32 33 37 39 38 38 39 40 36 38 40 41 41 42 42 38 36 35 35 36 36 37 37 37 37 37 38 38 39 39
33 33 32 32 32 32 31 31 30 30 30 29 29 30 32 30 31 30 30 30 31 30 30 30 30 31 31 31 31 37 30 31 31 33 31 32 34 32 33 34 34 35 35 36 36 36 36 36 37 37 37 37
36 33 31 31 33 31 30 31 30 30 30 30 30 30 31 32 30 30 30 29 30 29 29 30 30 29 29 29 29 32 30 30 30 30 30 30 31 31 32 33 33 34 34 34 35 35 35 35 35 35 36 36
31 30 31 31 33 30 30 30 29 29 30 30 29 29 32 30 29 29 29 29 29 29 29 29 29 28 28 28 28 30 29 29 29 29 29 29 29 30 31 32 32 33 33 33 34 34 34 34 35 35 35 36
30 30 30 35 34 30 37 32 30 29 30 30 30 31 32 32 29 28 28 28 28 27 27 28 28 28 28 28 28 29 29 28 28 28 28 28 28 29 30 31 31 32 32 33 33 33 33 33 34 34 34 35
29 29 28 29 30 28 38 28 30 29 30 28 31 30 30 31 28 27 28 27 26 26 27 27 27 27 27 27 27 28 28 28 27 28 28 28 28 28 28 30 30 31 31 32 32 32 32 32 33 33 33 34
29 29 30 30 31 29 33 27 29 31 29 28 27 30 30 32 28 27 27 27 26 27 26 26 26 27 26 27 26 27 27 27 27 27 27 27 27 28 28 29 30 31 30 31 31 32 31 32 32 32 32 33
30 30 30 32 29 27 29 29 31 30 27 26 26 28 29 28 32 27 27 26 26 26 26 26 26 26 26 26 26 26 26 27 27 26 26 26 26 27 27 28 28 29 29 29 30 31 30 31 31 32 32 33
30 32 30 31 27 29 27 29 27 27 26 30 26 29 26 27 27 30 25 26 27 26 26 25 26 25 26 26 24 26 25 26 26 26 26 26 27 26 27 27 28 29 28 29 29 30 30 31 30 31 31 32
29 29 29 30 28 26 30 28 29 28 28 28 27 27 26 26 28 30 27 26 27 29 25 25 25 26 26 25 25 25 25 26 25 26 26 26 27 28 28 28 28 29 28 28 28 29 30 30 30 31 31 31
29 29 29 31 28 31 30 27 27 29 27 27 28 27 26 26 27 27 25 25 25 25 25 24 25 25 25 24 24 24 25 25 25 25 26 26 26 29 27 26 27 27 27 28 28 29 29 29 29 30 30 31
32 30 31 31 29 28 28 27 27 25 25 25 26 26 25 26 28 28 26 26 27 25 25 25 26 26 25 24 25 24 24 24 25 24 25 25 24 25 26 26 27 26 25 26 27 28 29 28 29 30 29 30
32 33 31 30 34 31 27 29 28 26 27 27 26 26 27 26 26 30 25 26 26 29 26 27 26 26 25 25 24 25 24 25 25 25 25 26 24 24 25 26 26 26 25 26 26 27 27 28 30 29 29 29
30 30 30 30 31 32 29 28 28 27 26 25 26 26 26 26 27 29 27 26 25 27 26 26 25 25 24 25 24 24 24 24 26 24 26 25 26 23 23 24 25 26 25 26 26 26 26 27 29 28 28 28
31 31 31 30 30 31 30 29 29 29 27 28 27 26 27 27 27 29 26 25 25 26 26 25 25 25 24 24 24 24 24 24 24 23 23 24 24 25 23 24 24 24 25 26 26 26 26 27 28 28 28 29
30 29 28 28 28 27 28 29 28 27 27 27 28 27 28 27 27 28 27 27 26 25 26 26 25 24 24 25 24 24 24 24 25 25 23 23 23 24 23 24 24 24 24 25 26 25 26 27 27 28 28 29
29 29 29 30 29 29 30 30 30 30 28 29 27 29 27 27 27 27 28 26 25 25 27 25 26 25 25 24 24 25 24 24 24 23 23 23 24 24 24 26 25 24 24 25 24 27 27 26 26 26 28 30
29 29 28 28 29 31 32 31 30 31 30 29 28 29 28 27 28 27 26 28 26 26 28 27 25 24 24 24 24 24 24 24 23 23 24 23 23 24 23 24 24 24 24 24 25 26 25 25 25 28 28 28
31 31 31 31 31 31 31 29 30 31 30 30 31 29 28 28 28 27 27 28 26 27 25 26 25 24 24 24 24 24 24 24 26 25 22 23 22 24 23 22 23 22 25 20 20 20 23 24 26 26 27 25
33 31 32 33 31 31 30 29 32 31 31 30 30 30 29 28 28 27 27 26 27 26 26 25 24 25 24 24 25 25 23 23 22 22 22 20 22 20 22 22 24 21 22 16 19 20 17 20 20 25 25 24
34 34 33 32 32 29 31 30 30 27 27 27 26 28 28 27 28 27 28 27 26 27 26 25 25 25 23 24 24 24 23 22 23 22 22 20 20 21 16 17 17 24 19 18 21 14 12 17 13 17 20 21
33 32 30 29 29 30 28 28 27 27 28 28 29 29 28 30 28 28 28 28 27 27 26 24 23 22 23 24 22 24 23 23 23 23 22 22 21 19 17 15 17 18 19 17 20 14 14 11 7 7 18 20
32 33 32 30 29 29 29 29 29 29 31 31 29 30 32 29 29 28 28 28 28 28 28 25 24 23 22 22 22 23 23 22 23 22 22 22 22 18 21 18 17 12 19 19 20 17 19 20 15 17 17 18
33 31 32 32 32 32 32 31 32 34 33 32 31 31 30 31 29 29 29 29 28 28 28 27 26 24 24 23 22 24 21 21 21 21 22 23 22 21 23 20 13 17 15 16 15 18 20 19 19 16 14 11

ECMWFFLT2_sfc_temp_174.txt.gz
Temp
55 56 56 56 56 56 56 56 56 55 55 54 54 54 54 54 55 55 55 55 55 55 56 57 57 56 57 57 57 57 57 57 57 57 57 56 56 56 56 55 55 55 55 54 53 52 52 51 52 52 56 60
54 54 54 54 54 54 54 54 54 54 53 52 52 52 52 52 52 53 53 54 54 54 54 55 55 55 55 56 56 56 56 56 56 56 55 55 55 55 54 54 54 54 54 53 52 51 50 51 51 52 54 58
54 52 52 52 52 52 52 52 52 51 51 50 50 49 49 50 50 50 51 51 52 52 52 52 53 54 54 54 54 55 55 55 55 55 54 54 53 53 52 52 53 52 53 52 51 50 50 50 51 52 55 57
54 51 51 51 50 50 50 50 50 49 49 48 48 48 48 48 49 49 50 49 51 50 49 50 51 52 53 53 53 53 53 53 54 53 53 52 52 51 50 50 50 50 51 51 50 50 50 50 52 55 56 56
52 51 50 50 49 48 48 48 48 47 47 47 47 48 47 49 52 52 51 51 51 49 50 48 49 50 51 52 51 51 51 52 52 52 52 51 50 49 49 49 49 49 50 50 49 49 50 51 55 54 54 55
51 50 51 52 52 51 50 48 48 49 49 48 50 47 50 52 53 52 51 50 48 51 49 48 47 48 49 50 50 50 49 50 51 51 50 50 49 49 48 49 53 52 50 49 49 49 50 53 54 53 54 54
51 52 52 51 51 49 48 48 49 50 49 50 49 50 51 52 52 51 50 48 46 47 45 46 45 45 47 47 47 47 47 47 47 48 48 48 48 48 49 51 52 52 52 53 50 51 53 54 52 52 53 54
53 52 52 52 51 51 51 49 49 49 49 49 49 50 52 51 50 49 49 43 42 45 49 47 44 43 44 45 45 45 47 47 46 46 47 47 48 49 50 51 52 52 52 52 53 53 53 53 52 52 53 53
52 52 52 52 51 51 51 50 50 50 49 48 48 49 51 49 48 49 50 50 50 51 50 50 50 50 50 50 48 47 49 50 49 50 50 51 50 51 50 50 50 51 51 52 52 52 52 52 52 52 52 52
51 50 51 51 51 51 51 50 50 50 50 49 49 49 49 49 49 49 50 49 49 49 50 50 50 50 50 49 49 50 50 50 50 51 51 50 50 51 51 50 50 50 50 50 51 52 51 51 52 52 52 52
51 51 52 51 51 50 50 51 50 50 50 50 49 49 49 50 50 50 50 49 48 49 50 50 50 50 50 49 50 51 50 49 50 50 50 50 50 50 50 50 50 50 50 50 50 50 50 50 51 51 51 52
52 52 51 51 49 51 50 50 50 50 50 49 49 50 52 51 52 51 50 49 49 49 50 48 49 50 49 49 49 50 50 49 50 50 50 49 49 50 50 50 49 50 51 50 50 49 49 49 50 50 51 51
52 52 51 51 51 51 49 51 51 50 50 50 51 49 49 51 51 51 50 49 49 50 48 48 49 49 49 49 49 50 49 49 49 49 49 49 49 49 50 50 49 50 50 51 51 50 49 49 50 49 50 50
52 51 50 50 51 51 50 51 51 49 50 51 50 50 49 49 51 51 50 49 50 49 47 48 48 48 48 48 49 49 48 49 49 49 49 48 49 49 49 49 48 50 50 50 50 50 49 49 50 50 49 49
52 52 51 51 51 51 51 51 50 50 51 50 51 50 48 49 49 50 50 49 49 49 48 48 48 48 49 48 48 49 48 48 48 48 47 47 48 49 49 49 49 49 50 50 50 49 49 49 50 50 50 50
52 52 52 51 52 51 51 50 50 51 51 50 50 49 48 49 49 50 49 48 48 49 48 49 48 48 48 47 48 48 47 47 47 47 46 45 46 47 48 49 49 49 50 50 50 50 49 49 49 49 49 49
53 53 53 52 52 52 50 50 51 51 51 51 50 49 48 49 48 50 49 48 47 47 48 47 47 47 47 48 47 47 44 45 47 48 47 46 47 48 48 48 48 48 50 49 49 50 49 50 49 49 49 49
53 53 52 53 53 53 50 52 51 51 51 51 51 49 48 48 48 49 49 48 47 48 48 47 47 47 47 47 46 46 46 47 48 48 46 47 48 46 48 47 47 48 48 49 49 50 49 50 49 49 48 48
53 53 53 52 53 52 51 52 52 52 52 51 51 50 49 48 48 48 48 48 48 47 48 48 47 46 47 46 46 46 47 47 47 47 46 47 47 47 47 46 46 46 47 46 47 48 49 49 50 49 47 47
53 53 53 53 51 53 51 52 52 52 51 51 51 51 50 48 48 48 48 47 47 47 48 48 48 48 47 45 46 46 45 45 46 46 45 45 45 46 45 45 45 47 45 46 46 47 48 49 48 49 48 47
52 53 53 53 52 52 51 52 52 53 52 52 51 51 50 49 48 48 47 47 47 48 47 48 48 48 45 45 45 45 45 45 46 45 43 45 44 45 45 44 43 45 46 45 45 46 46 47 48 49 48 47
52 52 53 52 52 51 51 51 52 53 52 51 51 51 50 49 48 48 48 47 47 47 48 48 47 47 46 45 45 45 45 46 46 45 45 44 44 44 44 45 44 44 45 43 44 46 46 46 48 49 48 47
52 52 52 52 51 50 50 51 52 52 52 51 52 51 50 49 49 49 48 47 47 47 47 47 47 46 45 45 45 45 45 44 44 44 44 43 43 43 44 44 44 43 43 42 43 44 46 47 47 48 48 47
50 50 49 48 49 48 49 50 50 50 51 51 51 51 51 50 49 50 49 48 47 47 47 47 47 46 46 45 45 44 44 44 44 42 41 41 42 42 42 43 44 43 43 44 44 44 46 46 47 47 46 46
49 47 47 47 47 47 49 49 50 50 50 50 51 50 50 50 50 49 49 48 47 47 46 47 47 46 45 45 45 44 45 45 45 44 43 43 43 41 42 43 44 42 43 43 45 47 44 45 46 46 46 45
49 49 49 48 47 49 50 49 48 48 50 50 49 50 49 49 49 49 48 48 48 47 46 46 47 46 45 44 44 45 45 44 42 41 41 42 41 43 41 43 43 39 43 41 41 41 44 45 44 44 45 43
49 51 50 50 51 50 50 53 53 52 51 51 50 50 49 49 49 48 47 47 47 46 46 46 46 46 46 45 45 44 42 42 40 40 39 38 41 41 42 42 42 39 43 39 41 40 38 42 42 43 40 44
51 51 52 52 52 52 53 52 52 52 51 50 49 48 49 49 49 48 48 48 46 46 45 45 45 47 46 46 45 44 44 43 41 42 40 38 36 38 38 38 38 41 37 39 39 39 38 37 36 35 39 38
50 50 49 49 49 49 47 47 47 48 47 48 48 48 47 47 48 47 47 48 47 46 44 43 41 43 44 45 44 45 44 45 44 43 42 41 38 36 39 39 38 37 36 35 41 39 40 39 38 37 38 41
50 49 48 46 44 43 43 44 44 44 46 47 47 46 49 49 48 47 47 47 47 47 46 44 43 39 40 41 41 41 42 45 45 44 43 42 41 40 41 39 38 35 36 34 35 36 42 40 38 37 38 38
49 48 49 48 46 46 45 45 46 49 50 50 50 49 49 49 49 48 47 47 47 46 46 46 45 43 41 41 41 41 41 40 41 42 41 43 42 41 41 39 37 36 36 34 33 33 34 35 37 37 36 34